Location: Poughquag
(41.6090°N, 73.6820°W)
Time: 07:47:45
(UTC-05:00)

DIWATA 2B (PO-101) - Pass Details

Date: 20 November 2025
Orbit: 563 x 574 km, 98.1° (Epoch: 07 December)

Event Time Altitude Azimuth Distance (km) Brightness Sun altitude
Exits shadow 17:03:26 - 41° (NE) 2,285 ? -6.5°
Reaches altitude 10° 17:04:55 10° 55° (NE) 1,863 ? -6.7°
Maximum altitude 17:07:22 16° 93° (E) 1,528 ? -7.2°
Drops below altitude 10° 17:09:50 10° 131° (SE) 1,855 ? -7.6°
Sets 17:12:42 0° 154° (SSE) 2,747 ? -8.1°
